OBJECT F

Satellite information

Favourite Embed

Satellite Type and Status

UNKNOWNDECAYED

Key statistics

Satellite OBJECT F at a glance.

Uptime

663

Days in orbit

Revolutions

≈ 16.4

Per day

Orbit

SSO

Sun Synchronous Orbit

Inclination

97.4

Latest

Satellite identification and parameters

Extended collection of information and parameters for OBJECT F.

Object identification

Identified? True

Debris? False

Object name: OBJECT F

International designator: 2024-016F

Object number (NORAD): 58825

Object ID (CCSDS): 58825

Country: PEOPLES REPUBLIC OF CHINA (PRC)

Current information (Y/N): Y

RCS size: MEDIUM

Orbital parameters

Decay date: Nov. 16, 2025

Period: 87.707 minutes

Inclination: 97.4436 deg

SMA: 6539.059 km

Apoapsis: 167.698 km

Periapsis: 154.15 km

RAAN: 52.7321 deg

Eccentricy: 0.00103593

Argument of periapsis: 252.5709 deg

Mean anomaly: 107.4459 deg

Mean motion: 16.41836546 rev/day

Mean motion (dot): 0.17035075 rev/day2

B* drag term: 0.00086602744 1/REarth

Two-line elements (TLE)

Creation date: Nov. 17, 2025, 5:28 p.m.

Reference frame: TEME

Reference center: EARTH

Epoch: Nov. 16, 2025, 8:27 p.m. UTC

TLE line 0: 0 OBJECT F

TLE line 1: 1 58825U 24016F 25320.85257990 .17035075 26217-5 86603-3 0 9995

TLE line 2: 2 58825 97.4436 52.7321 0010359 252.5709 107.4459 16.41836546101669

Live tracking on map

Satellite OBJECT F has decayed and is no longer in orbit. No tracking available.

In-orbit conjunctions

Satellite OBJECT F has decayed and is no longer in orbit. No conjunctions available.

Associated space launch

Carries 5 Earth and spatial observation satellites manufactured by MINOSPACE; details TBD: * Taijing-1-03 * Taijing-2-02 * Taijing-2-04 * Taijing-3-02 * Taijing-4-03

OBJECT F was lifted into orbit during the mission ‘Kinetica 1 | Flight 3’, on board a Kinetica 1 space rocket.

The launch took place on Jan. 23, 2024, 4:03 a.m. from Launch Area 130.

For more information about the launch, click the button.

Launch to space Kinetica 1 | Flight 3
Kinetica 1 | Flight 3

Agency: N/A

Status: Launch Successful

Launch date: Jan. 23, 2024, 4:03 a.m. UTC

Rocket: Kinetica 1

Launch pad: Launch Area 130

Location: Jiuquan Satellite Launch Center, People's Republic of China

...

Latest news about this satellite

There are no fresh news available about this satellite. Check back as we update our databases every day.


Newsletter sign-up

Weekly statistics, charts and insights to help you stay on top of the space industry.